Voltar ao catálogo

YAM-9

AtivoMilitarSSO
NORAD 66694·PAYLOAD·🇺🇸 United States

Lançado Nov 28, 2025 de Vandenberg Space Force Base

Loading…

Próximas Passagens (próximas 24 horas)

TLE

AtualizadoSource: Space-Track

Época: Sep 14, 2026, 11:20 UTC

1 66694U 25276AE  26257.47224838  .00004167  00000-0  22193-3 0  9991
2 66694  97.4135 327.9035 0008677  13.0673 347.0783 15.15719501 43878

Acompanhe YAM-9 em tempo real com AllMySat

Download on the App Store